Humidity-temperature Sensor

Selected Measurement Type: Air Temperature

 
Air Temperature [°C]     6 entries per hour
Showing data from 5/1/2015 (00:00:00 Z) to 4/28/2015 (04:10:00 Z)
Previous Next [ Day | 3-Days | 7-Days ]
First Last
Prev [ Day | 3-Days | 7-Days ] Next
First Last

Start Time:     :
End Time:     :     
Time (in GMT) :00 :50 :40 :30 :20 :10
Previous Next [ Day | 3-Days | 7-Days ]
First Last
Prev [ Day | 3-Days | 7-Days ] Next
First Last


123 => good data
MM => data is determined as missing
-- => data not received/configured
Back to Top Back to Top
5/1/2015 00:00 to 23:10 27.75 27.81 27.74 27.76 27.82 27.83
4/30/2015 23:00 to 22:10 27.72 27.71 27.65 27.77 27.70 27.66
4/30/2015 22:00 to 21:10 27.67 27.77 27.57 27.80 27.61 27.50
4/30/2015 21:00 to 20:10 27.61 27.61 27.58 27.55 27.54 27.52
4/30/2015 20:00 to 19:10 27.52 27.59 27.66 27.62 27.50 27.51
4/30/2015 19:00 to 18:10 27.57 27.59 27.57 27.62 27.61 27.65
4/30/2015 18:00 to 17:10 27.60 27.55 27.60 27.55 27.53 27.55
4/30/2015 17:00 to 16:10 27.52 27.56 27.59 27.50 27.54 27.55
4/30/2015 16:00 to 15:10 27.37 27.56 27.50 27.42 27.41 27.40
4/30/2015 15:00 to 14:10 27.39 27.55 27.45 27.43 27.19 27.08
4/30/2015 14:00 to 13:10 27.21 27.10 27.15 27.21 27.10 27.19
4/30/2015 13:00 to 12:10 27.24 27.07 27.12 27.05 27.13 27.10
4/30/2015 12:00 to 11:10 27.07 27.13 27.03 27.05 27.08 27.02
4/30/2015 11:00 to 10:10 27.09 27.13 27.19 27.02 27.07 27.02
4/30/2015 10:00 to 9:10 27.03 27.14 27.10 27.03 27.07 27.10
4/30/2015 09:00 to 8:10 27.05 27.12 27.19 27.14 27.23 27.16
4/30/2015 08:00 to 7:10 27.18 27.19 27.17 27.24 27.26 27.28
4/30/2015 07:00 to 6:10 27.26 27.30 27.30 27.30 27.40 27.39
4/30/2015 06:00 to 5:10 27.45 27.41 27.46 27.52 27.49 27.47
4/30/2015 05:00 to 4:10 27.49 27.54 27.55 27.50 27.44 27.49
4/30/2015 04:00 to 3:10 27.45 27.49 27.52 27.50 27.50 27.50
4/30/2015 03:00 to 2:10 27.49 27.59 27.58 27.59 27.53 27.60
4/30/2015 02:00 to 1:10 27.59 27.55 27.64 27.62 27.58 27.70
4/30/2015 01:00 to 0:10 27.65 27.74 27.88 28.01 28.03 28.08
4/30/2015 00:00 to 23:10 28.07 28.19 28.24 28.17 28.21 28.23
4/29/2015 23:00 to 22:10 27.98 27.79 27.80 27.97 27.98 27.92
4/29/2015 22:00 to 21:10 27.90 27.91 27.96 27.75 27.73 27.75
4/29/2015 21:00 to 20:10 27.66 27.66 27.73 27.86 27.77 27.77
4/29/2015 20:00 to 19:10 27.77 27.74 27.74 27.80 27.70 27.65
4/29/2015 19:00 to 18:10 27.70 27.72 27.73 27.73 27.67 27.70
4/29/2015 18:00 to 17:10 27.75 27.65 27.63 27.73 27.61 27.63
4/29/2015 17:00 to 16:10 27.62 27.69 27.57 27.65 27.61 27.60
4/29/2015 16:00 to 15:10 27.70 27.72 27.67 27.57 27.55 27.61
4/29/2015 15:00 to 14:10 27.59 27.56 27.51 27.37 27.35 27.33
4/29/2015 14:00 to 13:10 27.41 27.45 27.36 27.15 27.35 27.24
4/29/2015 13:00 to 12:10 27.18 27.15 27.18 26.93 27.20 27.28
4/29/2015 12:00 to 11:10 27.25 27.25 27.24 27.26 27.18 26.77
4/29/2015 11:00 to 10:10 26.88 26.92 26.99 27.01 27.50 27.38
4/29/2015 10:00 to 9:10 27.03 27.11 26.95 26.53 26.89 26.48
4/29/2015 09:00 to 8:10 26.21 26.13 26.27 26.30 26.21 25.98
4/29/2015 08:00 to 7:10 26.22 26.62 26.66 26.28 26.17 26.18
4/29/2015 07:00 to 6:10 26.12 26.12 26.97 26.91 27.12 26.80
4/29/2015 06:00 to 5:10 26.96 27.13 27.21 27.39 27.17 27.13
4/29/2015 05:00 to 4:10 27.23 27.33 27.25 27.49 27.56 27.62
4/29/2015 04:00 to 3:10 27.48 27.39 27.37 27.48 27.45 27.63
4/29/2015 03:00 to 2:10 27.30 27.18 27.10 27.09 27.06 26.92
4/29/2015 02:00 to 1:10 26.84 26.77 26.69 27.09 26.96 26.85
4/29/2015 01:00 to 0:10 27.07 27.20 27.29 27.61 27.24 27.03
4/29/2015 00:00 to 23:10 27.02 27.12 27.05 26.92 27.55 27.39
4/28/2015 23:00 to 22:10 26.95 27.10 27.03 26.96 26.80 26.69
4/28/2015 22:00 to 21:10 26.60 26.04 25.85 25.95 26.32 26.19
4/28/2015 21:00 to 20:10 26.71 27.66 27.60 27.51 27.63 27.51
4/28/2015 20:00 to 19:10 27.56 27.47 27.47 27.43 27.37 27.25
4/28/2015 19:00 to 18:10 27.38 27.46 27.51 27.56 27.50 27.40
4/28/2015 18:00 to 17:10 27.39 27.93 27.84 27.97 28.00 27.87
4/28/2015 17:00 to 16:10 27.88 27.94 27.79 28.01 27.89 27.85
4/28/2015 16:00 to 15:10 27.89 27.86 27.93 27.91 27.94 27.94
4/28/2015 15:00 to 14:10 28.00 27.93 27.80 27.97 27.93 27.82
4/28/2015 14:00 to 13:10 27.26 27.24 26.92 26.81 26.69 26.59
4/28/2015 13:00 to 12:10 26.69 26.71 26.38 26.37 27.27 27.28
4/28/2015 12:00 to 11:10 27.31 27.27 27.23 27.22 27.09 27.13
4/28/2015 11:00 to 10:10 26.98 26.93 26.74 26.75 26.87 26.71
4/28/2015 10:00 to 9:10 27.11 27.23 27.33 27.52 27.43 27.06
4/28/2015 09:00 to 8:10 27.05 26.88 27.06 27.05 27.20 27.29
4/28/2015 08:00 to 7:10 27.27 27.23 -- -- -- --
4/28/2015 07:00 to 6:10 27.11 27.10 27.19 27.30 27.42 27.66
4/28/2015 06:00 to 5:10 27.52 27.47 27.50 27.53 27.60 27.57
4/28/2015 05:00 to 4:10 27.58 27.62 27.50 27.03 26.63 26.56